PGT270A LTFJ-LTFH

Flight info

Callsign PGT270A
Flight time 0h 58m
Altitude 35000
Route VICEN UT380 ASMAP UL333 LATGA UT363 ESB UT364 ILHAN UW71 HAVZA
Aircraft A320/M-SDE3FGHIRWY/LB1

Departure

Time 2026-04-27 05:17
Airport Istanbul Sabiha Gökçen International Airport (LTFJ)

Arrival

Time 2026-04-27 06:15
Airport Samsun-Çarşamba Airport (LTFH)
Time Latitude Longitude Altitude Speed Heading
2026-04-27 05:04 40.90404 29.31096 321 ft 0 kts 335°
2026-04-27 05:09 40.90401 29.31098 321 ft 2 kts 335°
2026-04-27 05:09 40.90386 29.31107 321 ft 2 kts 334°
2026-04-27 05:09 40.90371 29.31117 321 ft 2 kts 332°
2026-04-27 05:10 40.90357 29.31127 319 ft 2 kts 335°
2026-04-27 05:10 40.90342 29.31139 321 ft 2 kts 263°
2026-04-27 05:10 40.90347 29.31159 318 ft 2 kts 245°
2026-04-27 05:10 40.90349 29.31165 321 ft 0 kts 245°
2026-04-27 05:11 40.90348 29.31163 321 ft 1 kts 245°
2026-04-27 05:12 40.90340 29.31140 320 ft 7 kts 245°
2026-04-27 05:12 40.90305 29.31043 321 ft 16 kts 244°
2026-04-27 05:12 40.90246 29.30886 321 ft 17 kts 238°
2026-04-27 05:12 40.90177 29.30897 321 ft 11 kts 156°
2026-04-27 05:13 40.90080 29.30920 321 ft 19 kts 207°
2026-04-27 05:13 40.90020 29.30797 320 ft 18 kts 244°
2026-04-27 05:13 40.89952 29.30612 321 ft 27 kts 244°
2026-04-27 05:13 40.89862 29.30367 319 ft 31 kts 244°
2026-04-27 05:14 40.89770 29.30117 321 ft 30 kts 244°
2026-04-27 05:14 40.89683 29.29880 321 ft 28 kts 244°
2026-04-27 05:14 40.89600 29.29656 320 ft 26 kts 244°
2026-04-27 05:14 40.89526 29.29455 321 ft 24 kts 244°
2026-04-27 05:15 40.89454 29.29274 320 ft 20 kts 219°
2026-04-27 05:15 40.89350 29.29279 320 ft 7 kts 153°
2026-04-27 05:15 40.89304 29.29310 321 ft 9 kts 150°
2026-04-27 05:15 40.89289 29.29380 322 ft 9 kts 67°
2026-04-27 05:16 40.89323 29.29474 321 ft 21 kts 64°
2026-04-27 05:16 40.89498 29.29948 322 ft 90 kts 64°
2026-04-27 05:16 40.89857 29.30922 322 ft 142 kts 64°
2026-04-27 05:16 40.90345 29.32227 639 ft 162 kts 63°
2026-04-27 05:17 40.90857 29.33559 1517 ft 163 kts 63°
2026-04-27 05:17 40.91356 29.34909 2191 ft 166 kts 64°
2026-04-27 05:17 40.91884 29.36363 2530 ft 186 kts 64°
2026-04-27 05:17 40.92483 29.38004 2777 ft 211 kts 64°
2026-04-27 05:18 40.93154 29.39851 3143 ft 235 kts 66°
2026-04-27 05:18 40.93432 29.42012 3771 ft 247 kts 100°
2026-04-27 05:18 40.92644 29.44067 4422 ft 262 kts 136°
2026-04-27 05:18 40.91131 29.45362 5380 ft 263 kts 155°
2026-04-27 05:19 40.89432 29.46305 6070 ft 272 kts 160°
2026-04-27 05:19 40.87646 29.47192 6873 ft 277 kts 161°
2026-04-27 05:19 40.85819 29.48063 7666 ft 280 kts 162°
2026-04-27 05:19 40.83967 29.48938 8462 ft 285 kts 161°
2026-04-27 05:20 40.82133 29.50019 9231 ft 291 kts 156°
2026-04-27 05:20 40.80294 29.51182 10020 ft 295 kts 155°
2026-04-27 05:20 40.78541 29.52638 10710 ft 302 kts 141°
2026-04-27 05:20 40.77053 29.54748 10963 ft 327 kts 124°
2026-04-27 05:21 40.76024 29.57532 11139 ft 350 kts 107°
2026-04-27 05:21 40.75377 29.60741 11278 ft 373 kts 104°
2026-04-27 05:21 40.74711 29.64126 11651 ft 385 kts 104°
2026-04-27 05:21 40.74029 29.67565 12286 ft 390 kts 104°
2026-04-27 05:22 40.73528 29.71104 12940 ft 394 kts 98°
2026-04-27 05:22 40.73145 29.74655 13605 ft 397 kts 97°
2026-04-27 05:22 40.72785 29.78284 14240 ft 401 kts 97°
2026-04-27 05:22 40.72435 29.81951 14821 ft 404 kts 97°
2026-04-27 05:23 40.72085 29.85637 15388 ft 407 kts 97°
2026-04-27 05:23 40.71723 29.89365 15948 ft 410 kts 97°
2026-04-27 05:23 40.71350 29.93101 16500 ft 413 kts 97°
2026-04-27 05:23 40.70965 29.96873 17059 ft 416 kts 97°
2026-04-27 05:24 40.70576 30.00660 17602 ft 419 kts 97°
2026-04-27 05:24 40.70182 30.04477 18137 ft 421 kts 97°
2026-04-27 05:24 40.69786 30.08317 18646 ft 424 kts 97°
2026-04-27 05:24 40.69387 30.12179 19119 ft 426 kts 97°
2026-04-27 05:25 40.68985 30.16058 19592 ft 428 kts 97°
2026-04-27 05:25 40.68585 30.19902 20050 ft 431 kts 97°
2026-04-27 05:25 40.68175 30.23831 20504 ft 433 kts 97°
2026-04-27 05:25 40.67763 30.27768 20954 ft 435 kts 97°
2026-04-27 05:26 40.67347 30.31735 21392 ft 437 kts 97°
2026-04-27 05:26 40.66928 30.35721 21803 ft 440 kts 97°
2026-04-27 05:26 40.66508 30.39718 22212 ft 442 kts 97°
2026-04-27 05:26 40.66084 30.43737 22608 ft 444 kts 97°
2026-04-27 05:27 40.65656 30.47776 22999 ft 446 kts 97°
2026-04-27 05:27 40.65221 30.51831 23392 ft 449 kts 97°
2026-04-27 05:27 40.64784 30.55909 23769 ft 451 kts 97°
2026-04-27 05:27 40.64346 30.60007 24103 ft 453 kts 97°
2026-04-27 05:28 40.63903 30.64128 24424 ft 455 kts 97°
2026-04-27 05:28 40.63461 30.68216 24740 ft 457 kts 96°
2026-04-27 05:28 40.63227 30.72395 25032 ft 457 kts 88°
2026-04-27 05:28 40.63374 30.76576 25321 ft 458 kts 85°
2026-04-27 05:29 40.63566 30.80762 25610 ft 460 kts 85°
2026-04-27 05:29 40.63762 30.84972 25896 ft 462 kts 85°
2026-04-27 05:29 40.63956 30.89198 26179 ft 463 kts 85°
2026-04-27 05:29 40.64149 30.93462 26464 ft 465 kts 85°
2026-04-27 05:30 40.64339 30.97729 26742 ft 467 kts 85°
2026-04-27 05:30 40.64523 31.02006 27099 ft 466 kts 85°
2026-04-27 05:30 40.64702 31.06255 27516 ft 465 kts 85°
2026-04-27 05:30 40.64878 31.10451 27917 ft 464 kts 85°
2026-04-27 05:31 40.65059 31.14752 28335 ft 463 kts 85°
2026-04-27 05:31 40.65235 31.18922 28732 ft 462 kts 85°
2026-04-27 05:31 40.65416 31.23139 29145 ft 461 kts 85°
2026-04-27 05:31 40.65594 31.27347 29555 ft 460 kts 85°
2026-04-27 05:32 40.65766 31.31546 29969 ft 459 kts 85°
2026-04-27 05:32 40.65935 31.35743 30357 ft 458 kts 85°
2026-04-27 05:32 40.66103 31.39947 30696 ft 457 kts 85°
2026-04-27 05:32 40.66268 31.44125 31015 ft 457 kts 85°
2026-04-27 05:33 40.66433 31.48305 31346 ft 456 kts 85°
2026-04-27 05:33 40.66598 31.52469 31677 ft 455 kts 85°
2026-04-27 05:33 40.66761 31.56634 32014 ft 455 kts 85°
2026-04-27 05:33 40.66918 31.60788 32345 ft 454 kts 86°
2026-04-27 05:34 40.67072 31.64891 32676 ft 453 kts 86°
2026-04-27 05:34 40.67226 31.69039 33016 ft 453 kts 86°
2026-04-27 05:34 40.67380 31.73189 33360 ft 452 kts 86°
2026-04-27 05:34 40.67534 31.77321 33694 ft 451 kts 86°
2026-04-27 05:35 40.67689 31.81459 34040 ft 451 kts 86°
2026-04-27 05:35 40.67841 31.85581 34343 ft 450 kts 86°
2026-04-27 05:35 40.67988 31.89701 34612 ft 450 kts 86°
2026-04-27 05:35 40.68133 31.93823 34863 ft 450 kts 86°
2026-04-27 05:36 40.68277 31.97894 35078 ft 451 kts 86°
2026-04-27 05:36 40.68561 32.06201 35157 ft 456 kts 86°
2026-04-27 05:37 40.68846 32.14561 35153 ft 457 kts 86°
2026-04-27 05:37 40.69129 32.22936 35150 ft 458 kts 86°
2026-04-27 05:38 40.69403 32.31346 35147 ft 458 kts 86°
2026-04-27 05:38 40.69664 32.39685 35145 ft 458 kts 86°
2026-04-27 05:39 40.69927 32.48084 35145 ft 458 kts 86°
2026-04-27 05:39 40.70185 32.56496 35145 ft 459 kts 86°
2026-04-27 05:40 40.70429 32.64902 35143 ft 459 kts 87°
2026-04-27 05:40 40.70669 32.73273 35145 ft 459 kts 86°
2026-04-27 05:41 40.70908 32.81675 35148 ft 459 kts 86°
2026-04-27 05:41 40.71144 32.90097 35142 ft 459 kts 87°
2026-04-27 05:42 40.71371 32.98507 35144 ft 459 kts 87°
2026-04-27 05:42 40.71583 33.06923 35141 ft 460 kts 87°
2026-04-27 05:43 40.71798 33.15360 35138 ft 460 kts 87°
2026-04-27 05:43 40.71999 33.23738 35137 ft 460 kts 87°
2026-04-27 05:44 40.72199 33.32171 35133 ft 460 kts 87°
2026-04-27 05:44 40.72395 33.40620 35131 ft 461 kts 87°
2026-04-27 05:45 40.72585 33.49059 35126 ft 461 kts 87°
2026-04-27 05:45 40.72765 33.57516 35121 ft 461 kts 87°
2026-04-27 05:46 40.72940 33.65980 35121 ft 461 kts 88°
2026-04-27 05:46 40.73104 33.74435 35117 ft 461 kts 88°
2026-04-27 05:47 40.73265 33.82840 35114 ft 461 kts 88°
2026-04-27 05:47 40.73425 33.91298 35114 ft 462 kts 88°
2026-04-27 05:48 40.73579 33.99773 35115 ft 462 kts 88°
2026-04-27 05:48 40.73725 34.08238 35113 ft 462 kts 88°
2026-04-27 05:49 40.73863 34.16707 35110 ft 462 kts 88°
2026-04-27 05:49 40.73995 34.25175 35111 ft 462 kts 88°
2026-04-27 05:50 40.74118 34.33602 35107 ft 462 kts 88°
2026-04-27 05:50 40.74220 34.40665 35105 ft 462 kts 88°
2026-04-27 05:51 40.74333 34.49159 35102 ft 462 kts 88°
2026-04-27 05:51 40.74445 34.57642 35100 ft 462 kts 88°
2026-04-27 05:52 40.74551 34.66124 35101 ft 463 kts 88°
2026-04-27 05:52 40.75105 34.74556 35102 ft 461 kts 76°
2026-04-27 05:53 40.77192 34.82536 35100 ft 460 kts 68°
2026-04-27 05:53 40.79503 34.90380 35098 ft 461 kts 68°
2026-04-27 05:54 40.81817 34.98284 34945 ft 461 kts 68°
2026-04-27 05:54 40.82972 35.02238 34696 ft 461 kts 68°
2026-04-27 05:54 40.84125 35.06183 34456 ft 460 kts 68°
2026-04-27 05:54 40.85280 35.10126 34213 ft 460 kts 68°
2026-04-27 05:55 40.86433 35.14078 33969 ft 461 kts 68°
2026-04-27 05:55 40.87583 35.18027 33688 ft 461 kts 68°
2026-04-27 05:55 40.88737 35.21988 33428 ft 462 kts 68°
2026-04-27 05:55 40.89885 35.25956 33155 ft 462 kts 68°
2026-04-27 05:56 40.91035 35.29934 32890 ft 463 kts 68°
2026-04-27 05:56 40.92184 35.33910 32626 ft 464 kts 68°
2026-04-27 05:56 40.93331 35.37895 32368 ft 464 kts 68°
2026-04-27 05:56 40.94462 35.41837 32111 ft 465 kts 68°
2026-04-27 05:57 40.95625 35.45889 31411 ft 467 kts 68°
2026-04-27 05:57 40.96786 35.49936 30356 ft 473 kts 68°
2026-04-27 05:57 40.97940 35.53968 29271 ft 476 kts 68°
2026-04-27 05:57 40.99109 35.58049 28425 ft 473 kts 68°
2026-04-27 05:58 41.00276 35.62114 27440 ft 474 kts 68°
2026-04-27 05:58 41.01451 35.66218 26378 ft 476 kts 68°
2026-04-27 05:58 41.02627 35.70324 25278 ft 479 kts 67°
2026-04-27 05:58 41.03827 35.74460 24171 ft 482 kts 67°
2026-04-27 05:59 41.05044 35.78593 23291 ft 479 kts 66°
2026-04-27 05:59 41.06254 35.82678 22442 ft 474 kts 66°
2026-04-27 05:59 41.07453 35.86724 21635 ft 469 kts 66°
2026-04-27 05:59 41.08638 35.90738 20852 ft 465 kts 66°
2026-04-27 06:00 41.10918 35.98696 19375 ft 458 kts 68°
2026-04-27 06:00 41.11994 36.02664 18675 ft 455 kts 69°
2026-04-27 06:00 41.13028 36.06556 17927 ft 452 kts 69°
2026-04-27 06:01 41.14064 36.10474 17205 ft 448 kts 69°
2026-04-27 06:01 41.15083 36.14307 17003 ft 432 kts 69°
2026-04-27 06:01 41.16069 36.17987 16884 ft 415 kts 68°
2026-04-27 06:01 41.17023 36.21531 16754 ft 400 kts 68°
2026-04-27 06:02 41.17934 36.24915 16624 ft 376 kts 68°
2026-04-27 06:02 41.18785 36.28078 16496 ft 352 kts 68°
2026-04-27 06:02 41.19587 36.31065 16217 ft 337 kts 68°
2026-04-27 06:02 41.20365 36.33962 15713 ft 330 kts 68°
2026-04-27 06:03 41.21133 36.36808 15237 ft 324 kts 68°
2026-04-27 06:03 41.21887 36.39607 14776 ft 318 kts 68°
2026-04-27 06:03 41.22625 36.42350 14340 ft 313 kts 68°
2026-04-27 06:03 41.23352 36.45055 13900 ft 308 kts 67°
2026-04-27 06:04 41.24056 36.47673 13447 ft 302 kts 68°
2026-04-27 06:04 41.24754 36.50276 13027 ft 295 kts 68°
2026-04-27 06:04 41.25434 36.52825 12592 ft 291 kts 68°
2026-04-27 06:04 41.26103 36.55339 12138 ft 286 kts 68°
2026-04-27 06:05 41.26758 36.57807 11721 ft 281 kts 68°
2026-04-27 06:05 41.27403 36.60236 11319 ft 275 kts 68°
2026-04-27 06:05 41.28033 36.62616 10931 ft 272 kts 68°
2026-04-27 06:05 41.28668 36.65002 10609 ft 272 kts 68°
2026-04-27 06:06 41.29204 36.67375 10261 ft 267 kts 78°
2026-04-27 06:06 41.29285 36.69833 9776 ft 267 kts 95°
2026-04-27 06:06 41.28882 36.72226 9271 ft 265 kts 111°
2026-04-27 06:06 41.28048 36.74361 8753 ft 263 kts 126°
2026-04-27 06:07 41.26971 36.76302 8290 ft 258 kts 127°
2026-04-27 06:07 41.25915 36.78213 7854 ft 254 kts 127°
2026-04-27 06:07 41.24880 36.80090 7435 ft 249 kts 126°
2026-04-27 06:07 41.23868 36.81928 7037 ft 244 kts 126°
2026-04-27 06:08 41.22852 36.83717 6617 ft 240 kts 134°
2026-04-27 06:08 41.21552 36.85031 6264 ft 233 kts 156°
2026-04-27 06:08 41.20019 36.85641 6009 ft 229 kts 176°
2026-04-27 06:08 41.18440 36.85522 5642 ft 226 kts 198°
2026-04-27 06:09 41.17028 36.84715 5286 ft 218 kts 218°
2026-04-27 06:09 41.15871 36.83456 4936 ft 214 kts 224°
2026-04-27 06:09 41.14745 36.82174 4535 ft 213 kts 224°
2026-04-27 06:09 41.13623 36.80905 4152 ft 212 kts 224°
2026-04-27 06:10 41.12667 36.79468 3759 ft 205 kts 248°
2026-04-27 06:10 41.12383 36.77673 3381 ft 198 kts 277°
2026-04-27 06:10 41.12795 36.75974 2990 ft 194 kts 304°
2026-04-27 06:10 41.13616 36.74548 2618 ft 196 kts 308°
2026-04-27 06:11 41.14459 36.73113 2321 ft 196 kts 309°
2026-04-27 06:11 41.15267 36.71731 2320 ft 182 kts 308°
2026-04-27 06:11 41.16017 36.70446 2306 ft 170 kts 308°
2026-04-27 06:11 41.16726 36.69243 2253 ft 166 kts 310°
2026-04-27 06:12 41.17465 36.68091 2022 ft 159 kts 311°
2026-04-27 06:12 41.18179 36.67009 1804 ft 154 kts 311°
2026-04-27 06:12 41.18879 36.65952 1589 ft 151 kts 311°
2026-04-27 06:12 41.19545 36.64941 1400 ft 140 kts 312°
2026-04-27 06:13 41.20186 36.64002 1227 ft 135 kts 314°
2026-04-27 06:13 41.20833 36.63107 1060 ft 133 kts 315°
2026-04-27 06:13 41.21479 36.62216 887 ft 134 kts 314°
2026-04-27 06:13 41.22124 36.61325 707 ft 134 kts 314°
2026-04-27 06:14 41.22765 36.60435 539 ft 133 kts 314°
2026-04-27 06:14 41.23396 36.59558 369 ft 130 kts 313°
2026-04-27 06:14 41.24027 36.58685 202 ft 132 kts 315°
2026-04-27 06:14 41.24654 36.57825 45 ft 130 kts 313°
2026-04-27 06:15 41.25186 36.57078 23 ft 86 kts 314°
2026-04-27 06:15 41.25502 36.56637 24 ft 49 kts 314°
2026-04-27 06:15 41.25687 36.56380 30 ft 33 kts 313°
2026-04-27 06:15 41.25841 36.56166 24 ft 31 kts 314°
2026-04-27 06:16 41.25986 36.55963 23 ft 29 kts 314°
2026-04-27 06:16 41.26011 36.55844 25 ft 10 kts 229°
2026-04-27 06:16 41.25957 36.55770 25 ft 15 kts 223°
2026-04-27 06:16 41.25873 36.55666 27 ft 15 kts 225°
2026-04-27 06:17 41.25895 36.55603 28 ft 10 kts 314°
2026-04-27 06:17 41.25893 36.55553 25 ft 3 kts 225°
2026-04-27 06:17 41.25878 36.55533 25 ft 4 kts 223°
2026-04-27 06:17 41.25870 36.55524 25 ft 0 kts 223°